Wind_Speed
79 78 77 76 77 78 79 79 78 78 77 78 81 85 89 91 93 95 95 96 96 96 97 99 100 101 102 102 103 105 106 107 108 108 109 110 111 112 113 115 116 117
79 78 78 78 79 80 81 81 81 81 81 83 86 90 92 94 96 97 97 97 98 98 99 101 102 103 104 105 107 108 109 110 110 111 112 113 114 116 117 118 120 121
79 79 79 80 81 82 82 82 83 84 85 88 91 94 95 97 99 99 99 99 100 100 102 103 104 106 107 108 109 111 112 112 113 114 115 116 118 119 120 122 123 124
81 81 82 82 83 83 84 85 87 88 91 93 95 97 99 101 102 102 102 102 102 103 104 105 106 108 109 110 112 113 114 115 116 117 118 120 121 122 123 125 126 126
84 84 84 85 86 87 89 90 92 93 95 97 99 101 103 104 104 104 104 104 105 106 106 107 109 109 111 112 114 115 117 118 119 120 122 123 124 125 126 127 128 128
87 87 88 89 90 92 93 95 96 98 99 101 103 105 106 106 105 105 106 106 107 107 108 109 110 111 113 114 116 118 119 121 122 123 125 125 126 127 128 128 129 130
91 91 92 93 95 96 97 99 100 101 102 104 106 107 107 107 107 107 108 108 109 109 110 111 112 113 115 117 119 121 122 123 125 126 127 128 128 129 130 130 131 132
95 95 96 98 99 100 101 102 103 104 106 107 108 108 108 108 109 109 110 110 110 111 112 113 115 117 119 121 122 123 124 126 128 129 129 130 130 131 132 132 133 134
98 99 100 101 102 103 104 105 106 107 109 109 109 109 109 110 111 111 112 112 113 114 115 116 118 120 122 123 124 126 127 129 130 131 131 131 132 133 133 134 135 136
101 101 102 104 105 106 107 108 109 110 110 110 110 111 112 113 113 113 114 115 116 117 118 120 121 122 124 126 127 128 130 131 132 133 133 133 134 134 135 136 137 137
104 104 105 106 107 108 109 110 111 111 111 111 112 113 114 115 115 116 116 117 119 120 121 122 124 125 126 127 129 130 132 133 134 134 134 135 135 136 137 137 138 139
106 107 108 109 110 111 111 111 111 112 112 113 114 116 117 117 118 118 119 120 121 122 123 124 126 127 128 129 130 132 134 135 136 136 136 136 137 137 138 138 139 140
109 110 110 111 111 112 112 112 113 113 114 116 117 118 119 119 119 120 121 121 123 124 125 126 127 128 129 130 132 134 135 137 137 137 137 137 138 138 138 139 139 140
111 111 112 112 112 113 113 114 115 116 117 118 119 120 120 120 121 121 122 123 124 125 126 127 128 129 130 132 134 136 137 138 138 138 138 138 138 138 139 139 140 141
112 112 113 113 114 114 115 116 117 118 119 120 121 121 121 122 123 123 124 124 125 126 127 127 129 131 133 135 137 138 139 138 138 138 138 137 138 138 139 140 141 141
113 114 114 115 116 116 117 118 119 120 121 121 122 122 123 123 123 124 124 125 126 127 128 129 132 134 136 137 138 139 138 138 137 137 137 138 138 139 140 141 141 142
115 116 117 118 119 119 120 121 121 122 122 123 123 123 123 123 123 124 125 126 127 129 131 133 135 137 138 138 138 138 137 137 137 137 137 138 139 140 141 141 142 143
118 119 120 120 121 122 122 123 123 123 123 123 122 123 123 123 124 125 127 129 131 133 134 136 137 138 138 138 137 137 137 137 137 137 137 138 139 140 141 142 142 143
120 121 121 122 123 123 123 123 123 123 123 123 124 124 125 126 127 129 130 132 134 135 136 137 137 137 137 137 137 136 136 136 137 137 138 139 140 141 142 142 142 142
122 123 123 124 124 124 125 125 125 126 126 126 127 127 128 129 130 132 133 134 135 136 136 137 137 137 136 136 136 136 136 137 137 139 140 141 142 142 142 142 142 141
125 125 126 126 127 127 127 128 128 128 129 129 129 130 130 131 132 133 134 134 135 136 136 136 136 135 135 135 136 136 137 138 139 141 142 143 143 142 142 141 141 141
127 127 127 128 128 128 128 129 129 129 129 129 130 130 131 131 132 133 134 134 135 135 135 134 134 134 134 135 136 138 139 140 141 142 142 142 141 141 141 140 140 139
126 127 127 127 128 128 128 128 128 129 129 129 129 130 130 131 132 133 133 133 133 133 133 133 134 134 136 137 138 139 140 141 141 140 140 140 139 139 139 138 137 136
125 125 126 126 126 126 126 126 127 127 127 127 128 129 129 130 131 132 132 132 132 132 133 133 134 135 136 137 138 139 139 139 138 137 137 136 136 136 135 134 134 133
122 123 123 123 124 124 124 125 125 126 127 127 128 129 129 130 130 130 131 131 132 132 133 134 134 135 136 136 136 136 136 135 134 133 133 132 132 132 132 132 131 131
121 122 122 122 123 124 124 125 125 126 126 127 127 128 128 128 129 129 130 130 131 132 132 132 132 132 132 132 132 132 131 130 129 129 129 129 129 130 130 130 130 131
Wind_Direction
282 283 284 286 287 289 290 291 290 289 289 290 292 294 297 298 299 300 300 301 301 301 301 302 302 303 304 304 305 306 308 308 308 308 308 308 307 307 307 307 308 308
282 283 284 285 286 288 289 289 288 288 288 289 292 294 296 298 299 300 300 300 300 301 301 301 302 303 303 304 305 307 307 307 307 307 306 306 306 306 306 307 307 308
282 283 284 285 286 287 287 287 287 287 288 290 292 294 296 297 298 299 300 300 300 300 301 301 302 303 303 304 305 306 306 306 305 305 305 305 306 306 306 307 308 308
282 282 283 284 285 285 286 286 286 287 288 290 292 294 295 296 297 298 299 299 299 300 301 302 302 303 304 304 305 304 304 304 304 305 305 305 305 306 306 307 308 308
280 281 282 282 283 284 285 286 286 287 289 290 292 293 295 295 296 297 298 299 300 301 301 302 303 303 303 303 303 303 303 303 304 304 305 305 305 306 306 307 307 307
279 279 280 281 282 283 284 285 286 287 289 290 292 293 294 295 296 297 298 300 301 301 302 302 302 302 302 302 302 302 302 303 304 304 305 305 305 306 306 306 307 307
278 279 280 281 282 283 284 285 286 288 289 290 292 293 294 295 296 297 299 300 301 301 301 301 301 300 300 300 301 301 302 303 304 304 305 305 305 305 305 306 306 307
278 279 280 281 282 283 284 286 287 288 289 290 292 293 294 296 297 298 299 299 300 300 300 299 299 299 299 300 300 301 302 303 304 304 304 304 304 305 305 305 306 307
278 278 279 281 282 283 284 285 287 288 290 291 292 294 295 297 297 298 298 298 298 298 298 298 298 298 299 299 300 301 302 303 303 304 304 304 304 304 305 305 306 306
278 279 280 281 282 283 285 286 287 289 290 292 293 294 295 296 296 296 296 296 296 296 296 297 297 298 298 299 300 301 302 302 303 303 303 303 304 304 305 305 305 306
278 279 281 282 283 284 286 287 288 290 291 292 293 294 294 295 295 295 295 295 295 295 296 296 297 298 299 300 300 301 301 302 302 302 303 303 303 304 304 305 305 305
279 280 281 282 284 285 286 287 289 290 291 291 292 292 293 293 293 293 293 293 294 295 295 296 297 298 299 299 300 300 301 301 302 302 302 302 303 303 304 304 304 305
279 280 281 283 284 285 286 287 288 289 290 290 290 291 291 291 291 292 292 293 293 294 295 296 297 298 298 299 299 300 300 301 301 301 302 302 302 303 303 304 304 304
279 280 281 282 283 284 285 286 287 287 288 288 289 289 289 289 290 291 291 292 293 294 295 296 296 297 298 298 299 299 300 300 300 301 301 302 302 302 303 303 303 304
279 280 281 282 282 283 284 285 285 286 286 287 287 287 288 288 289 290 291 292 293 294 294 295 296 296 297 297 298 298 299 299 300 300 301 301 302 302 302 302 303 303
278 279 280 280 281 282 282 283 284 284 285 285 286 286 287 288 289 290 291 292 292 293 294 294 295 296 296 297 297 298 298 299 299 300 300 301 301 301 301 301 301 302
277 278 279 280 280 281 282 282 283 283 284 285 286 286 287 288 289 289 290 291 292 293 293 294 294 295 296 296 297 297 298 298 299 299 300 300 300 300 300 300 300 301
277 278 279 279 280 281 281 282 283 283 284 285 285 286 287 287 288 289 290 291 291 292 293 293 294 294 295 296 296 297 297 298 298 299 299 299 299 299 299 299 300 300
277 277 278 279 279 280 281 281 282 283 284 284 285 286 286 287 288 289 289 290 291 291 292 293 293 294 294 295 296 296 297 297 298 298 297 297 297 298 298 298 299 299
276 277 278 278 279 280 280 281 282 283 283 284 285 285 286 287 287 288 289 289 290 291 292 292 293 293 294 295 295 296 296 296 296 296 296 296 296 297 298 298 298 299
275 276 277 277 278 279 280 281 281 282 283 283 284 285 285 286 287 288 288 289 290 290 291 292 292 293 294 294 295 295 295 295 295 295 295 295 296 297 297 297 298 299
274 275 276 277 277 278 279 280 280 281 282 283 284 284 285 286 287 287 288 289 289 290 291 291 292 292 293 293 293 293 293 294 294 294 295 296 296 296 297 297 298 299
273 274 275 276 277 278 278 279 280 281 282 282 283 284 285 285 286 287 288 288 289 289 290 291 291 291 292 292 292 292 293 293 294 294 295 295 296 296 297 298 298 299
273 274 275 276 277 277 278 279 280 280 281 282 283 283 284 285 286 286 287 288 288 289 289 290 290 291 291 291 291 292 292 293 294 294 295 295 296 297 297 298 298 299
273 274 275 276 276 277 278 278 279 280 281 281 282 283 284 285 285 286 287 287 288 288 289 289 290 290 290 291 291 291 292 293 294 294 295 296 296 297 297 298 298 299
273 274 274 275 276 276 277 278 279 280 280 281 282 283 284 284 285 286 286 287 288 288 288 289 289 289 290 290 291 291 292 293 294 294 295 296 296 297 297 298 299 299
Height
10796 10795 10794 10793 10791 10789 10788 10786 10785 10783 10781 10778 10775 10772 10769 10766 10763 10760 10757 10754 10751 10748 10744 10741 10737 10733 10730 10726 10723 10719 10716 10712 10708 10703 10699 10695 10691 10686 10681 10677 10672 10667
10790 10788 10787 10786 10784 10782 10781 10779 10778 10776 10773 10771 10768 10764 10761 10758 10755 10752 10749 10746 10743 10740 10736 10733 10729 10726 10722 10718 10714 10711 10706 10702 10697 10693 10689 10685 10680 10675 10670 10665 10660 10655
10782 10781 10779 10778 10777 10775 10773 10772 10770 10768 10765 10763 10760 10756 10753 10750 10747 10744 10741 10738 10735 10731 10728 10724 10721 10717 10713 10709 10705 10701 10696 10691 10687 10682 10678 10674 10669 10664 10659 10653 10648 10644
10774 10773 10771 10770 10768 10766 10765 10763 10761 10759 10757 10754 10751 10748 10745 10742 10739 10736 10733 10729 10726 10722 10719 10715 10712 10708 10704 10700 10695 10690 10685 10680 10676 10672 10667 10663 10658 10653 10648 10642 10637 10632
10766 10765 10763 10761 10760 10758 10756 10754 10752 10750 10748 10745 10742 10739 10736 10733 10730 10727 10723 10720 10716 10713 10709 10706 10702 10699 10694 10690 10684 10679 10674 10669 10665 10661 10656 10652 10647 10642 10637 10631 10626 10620
10757 10756 10755 10753 10752 10750 10748 10746 10744 10741 10739 10736 10733 10730 10727 10723 10720 10717 10714 10710 10707 10703 10700 10696 10692 10688 10684 10679 10673 10668 10663 10659 10655 10650 10646 10641 10635 10630 10625 10620 10614 10609
10748 10747 10745 10744 10743 10741 10739 10737 10734 10732 10729 10726 10723 10720 10717 10714 10711 10707 10704 10700 10697 10693 10690 10686 10682 10678 10672 10667 10662 10657 10653 10649 10644 10640 10635 10629 10624 10618 10613 10608 10603 10597
10739 10738 10736 10734 10733 10731 10729 10726 10724 10722 10719 10716 10713 10710 10707 10704 10701 10697 10694 10690 10686 10683 10680 10676 10672 10667 10662 10657 10651 10647 10643 10638 10634 10629 10623 10617 10612 10606 10600 10595 10590 10585
10732 10730 10728 10726 10724 10721 10719 10717 10714 10711 10708 10706 10703 10700 10697 10694 10690 10687 10683 10680 10676 10673 10669 10665 10661 10656 10651 10646 10641 10637 10632 10628 10622 10617 10611 10605 10599 10594 10588 10583 10578 10573
10724 10722 10720 10718 10715 10713 10710 10707 10704 10702 10699 10696 10693 10690 10687 10683 10680 10676 10673 10669 10666 10662 10658 10654 10650 10645 10640 10635 10631 10626 10621 10616 10610 10605 10599 10593 10587 10581 10576 10571 10566 10560
10715 10713 10711 10708 10706 10703 10700 10698 10695 10692 10690 10687 10684 10681 10677 10674 10670 10666 10662 10658 10655 10651 10647 10643 10639 10634 10629 10624 10620 10615 10609 10604 10598 10593 10587 10581 10575 10569 10564 10559 10553 10548
10706 10704 10701 10699 10696 10693 10691 10688 10686 10683 10680 10677 10674 10671 10667 10663 10659 10656 10652 10648 10644 10641 10637 10633 10628 10623 10618 10613 10608 10603 10598 10592 10587 10581 10575 10569 10564 10558 10551 10546 10540 10535
10698 10695 10692 10689 10687 10684 10681 10679 10676 10673 10670 10667 10664 10660 10656 10652 10649 10645 10641 10637 10634 10630 10626 10622 10617 10612 10607 10602 10597 10592 10586 10581 10575 10570 10564 10558 10552 10546 10539 10534 10528 10522
10688 10685 10683 10680 10677 10675 10672 10669 10666 10663 10660 10656 10653 10649 10645 10642 10638 10635 10631 10627 10623 10620 10615 10611 10607 10601 10596 10591 10585 10581 10575 10569 10564 10558 10552 10546 10539 10533 10527 10521 10516 10510
10677 10675 10672 10670 10667 10664 10661 10658 10655 10652 10649 10645 10641 10638 10635 10631 10628 10624 10621 10617 10612 10609 10604 10600 10595 10590 10585 10580 10574 10569 10564 10558 10552 10546 10540 10534 10527 10521 10515 10509 10503 10498
10666 10663 10661 10658 10655 10652 10649 10647 10644 10641 10637 10634 10631 10627 10624 10621 10618 10613 10610 10606 10601 10597 10593 10589 10584 10579 10574 10569 10563 10558 10552 10546 10540 10534 10527 10522 10515 10508 10503 10497 10491 10485
10654 10651 10648 10646 10643 10640 10638 10635 10632 10629 10626 10623 10620 10617 10614 10610 10606 10602 10598 10595 10591 10587 10582 10577 10573 10568 10562 10557 10552 10547 10541 10535 10528 10522 10516 10509 10502 10496 10490 10484 10478 10472
10641 10639 10636 10633 10631 10628 10626 10623 10621 10618 10615 10612 10609 10606 10603 10599 10595 10592 10588 10584 10580 10575 10571 10566 10561 10556 10551 10546 10541 10535 10529 10523 10517 10511 10504 10497 10490 10485 10479 10472 10466 10459
10629 10626 10624 10621 10619 10617 10614 10612 10610 10607 10604 10601 10598 10595 10592 10588 10584 10581 10577 10573 10569 10564 10560 10555 10550 10545 10540 10534 10529 10523 10517 10512 10506 10499 10491 10484 10478 10473 10468 10461 10454 10447
10616 10614 10611 10609 10607 10605 10603 10601 10598 10596 10593 10590 10587 10584 10580 10577 10573 10569 10565 10561 10557 10553 10548 10544 10539 10534 10528 10522 10516 10511 10505 10499 10493 10486 10478 10471 10466 10461 10456 10449 10442 10435
10603 10601 10599 10597 10596 10594 10592 10589 10586 10584 10581 10578 10575 10572 10569 10565 10562 10558 10554 10549 10545 10541 10536 10532 10527 10522 10516 10509 10503 10497 10492 10485 10479 10472 10464 10458 10453 10448 10442 10435 10429 10423
10591 10590 10588 10586 10584 10582 10579 10576 10574 10571 10569 10566 10563 10560 10557 10553 10549 10545 10541 10538 10533 10529 10524 10519 10514 10509 10503 10496 10490 10483 10477 10471 10464 10458 10451 10444 10439 10433 10427 10422 10416 10410
10580 10578 10576 10574 10571 10569 10566 10564 10561 10559 10556 10554 10551 10548 10544 10540 10537 10533 10529 10525 10520 10516 10512 10506 10501 10496 10490 10483 10476 10469 10463 10457 10451 10444 10437 10431 10424 10418 10413 10408 10402 10397
10568 10566 10563 10561 10559 10557 10554 10551 10549 10546 10544 10541 10538 10535 10532 10528 10524 10520 10515 10511 10507 10502 10498 10493 10487 10482 10476 10469 10462 10455 10450 10444 10438 10432 10424 10417 10411 10405 10399 10393 10388 10383
10555 10552 10550 10548 10546 10544 10541 10538 10536 10533 10530 10528 10525 10522 10519 10515 10511 10507 10502 10498 10493 10489 10484 10479 10473 10467 10461 10455 10448 10442 10437 10431 10426 10419 10412 10404 10398 10391 10385 10380 10374 10369
10541 10539 10537 10534 10532 10530 10527 10525 10523 10520 10518 10515 10512 10509 10506 10502 10498 10493 10489 10485 10480 10475 10470 10464 10459 10453 10446 10441 10435 10429 10424 10419 10413 10406 10399 10392 10385 10378 10372 10367 10361 10355